| time (UTC) | temp C | wind direction | speed KPH | gust KPH | rain 1hr cm | rain 24hr cm | rain mn cm | humidity % | barometer mb |
| 20260506231537 | 6 | 275 | 0.0 | 0.0 | 0.00 | 1.65 | 0.25 | 74 | 1015.3 |
| 20260506230036 | 6 | 281 | 0.0 | 0.0 | 0.00 | 1.65 | 0.25 | 74 | 1015.3 |
| 20260506224519 | 6 | 285 | 0.0 | 0.0 | 0.00 | 1.65 | 0.25 | 74 | 1015.3 |
| 20260506223017 | 6 | 288 | 0.0 | 1.6 | 0.00 | 1.65 | 0.25 | 74 | 1015.3 |
| 20260506221615 | 6 | 287 | 0.0 | 0.0 | 0.00 | 1.65 | 0.25 | 74 | 1015.2 |
| 20260506220059 | 6 | 315 | 0.0 | 0.0 | 0.00 | 1.65 | 0.25 | 74 | 1015.1 |
| 20260506214556 | 6 | 310 | 0.0 | 8.0 | 0.00 | 1.65 | 0.25 | 73 | 1015.0 |
| 20260506213037 | 6 | 323 | 0.0 | 1.6 | 0.00 | 1.65 | 0.25 | 74 | 1015.0 |
| 20260506211536 | 6 | 321 | 0.0 | 6.4 | 0.00 | 1.65 | 0.25 | 75 | 1014.7 |
| 20260506210017 | 6 | 315 | 0.0 | 1.6 | 0.00 | 1.65 | 0.25 | 75 | 1014.5 |
| 20260506204520 | 6 | 334 | 0.0 | 0.0 | 0.00 | 1.65 | 0.25 | 76 | 1014.4 |
| 20260506203057 | 6 | 328 | 0.0 | 0.0 | 0.00 | 1.65 | 0.25 | 76 | 1014.3 |
| 20260506201556 | 6 | 360 | 0.0 | 0.0 | 0.00 | 1.65 | 0.25 | 76 | 1014.3 |
| 20260506200045 | 6 | 334 | 0.0 | 6.4 | 0.00 | 1.65 | 0.25 | 77 | 1014.2 |
| 20260506194543 | 6 | 325 | 0.0 | 8.0 | 0.03 | 1.65 | 0.25 | 77 | 1014.2 |
| 20260506193043 | 5 | 17 | 0.0 | 9.7 | 0.03 | 1.65 | 0.25 | 77 | 1014.1 |
| 20260506191542 | 5 | 344 | 3.2 | 11.3 | 0.03 | 1.65 | 0.25 | 77 | 1014.3 |
| 20260506190040 | 5 | 351 | 0.0 | 4.8 | 0.03 | 1.65 | 0.25 | 77 | 1014.2 |
| 20260506184539 | 5 | 17 | 0.0 | 0.0 | 0.00 | 1.63 | 0.23 | 77 | 1014.2 |
| 20260506183039 | 5 | 38 | 3.2 | 9.7 | 0.00 | 1.63 | 0.23 | 77 | 1013.9 |
| 20260506181538 | 5 | 19 | 0.0 | 1.6 | 0.00 | 1.63 | 0.23 | 77 | 1013.7 |
| 20260506180007 | 5 | 340 | 0.0 | 6.4 | 0.00 | 1.63 | 0.23 | 77 | 1013.7 |
| 20260506174508 | 5 | 40 | 0.0 | 11.3 | 0.00 | 1.63 | 0.23 | 77 | 1013.6 |
| 20260506173055 | 5 | 14 | 0.0 | 8.0 | 0.00 | 1.63 | 0.23 | 77 | 1013.5 |
| 20260506171551 | 5 | 355 | 0.0 | 1.6 | 0.00 | 1.63 | 0.23 | 77 | 1013.3 |
| 20260506170031 | 5 | 15 | 0.0 | 8.0 | 0.00 | 1.68 | 0.23 | 77 | 1013.5 |
| 20260506164530 | 5 | 27 | 0.0 | 11.3 | 0.00 | 1.68 | 0.23 | 77 | 1013.5 |
| 20260506163029 | 5 | 13 | 0.0 | 12.9 | 0.00 | 1.68 | 0.23 | 77 | 1013.4 |
| 20260506161510 | 5 | 5 | 0.0 | 6.4 | 0.00 | 1.68 | 0.23 | 77 | 1013.7 |
| 20260506160052 | 5 | 33 | 0.0 | 0.0 | 0.00 | 1.68 | 0.23 | 77 | 1013.9 |
| 20260506154607 | 5 | 32 | 0.0 | 9.7 | 0.03 | 1.68 | 0.23 | 77 | 1013.9 |
| 20260506153034 | 5 | 9 | 0.0 | 8.0 | 0.03 | 1.68 | 0.23 | 77 | 1013.9 |
| 20260506151532 | 5 | 90 | 0.0 | 1.6 | 0.03 | 1.68 | 0.23 | 77 | 1013.6 |
| 20260506150013 | 5 | 89 | 0.0 | 0.0 | 0.05 | 1.68 | 0.23 | 77 | 1013.3 |
| 20260506144511 | 5 | 40 | 0.0 | 4.8 | 0.05 | 1.65 | 0.20 | 77 | 1013.4 |
| 20260506143104 | 5 | 13 | 1.6 | 12.9 | 0.05 | 1.65 | 0.20 | 77 | 1013.5 |
| 20260506141551 | 4 | 63 | 0.0 | 0.0 | 0.08 | 1.65 | 0.20 | 77 | 1013.4 |
| 20260506140033 | 4 | 109 | 0.0 | 12.9 | 0.05 | 1.63 | 0.18 | 77 | 1013.6 |
| 20260506134532 | 4 | 90 | 0.0 | 12.9 | 0.05 | 1.60 | 0.15 | 77 | 1013.5 |
| 20260506133014 | 4 | 92 | 0.0 | 12.9 | 0.05 | 1.60 | 0.15 | 77 | 1013.5 |
| 20260506131514 | 4 | 65 | 0.0 | 14.5 | 0.05 | 1.57 | 0.13 | 77 | 1013.5 |
| 20260506130054 | 4 | 76 | 0.0 | 6.4 | 0.05 | 1.63 | 0.13 | 77 | 1013.6 |
| 20260506124554 | 4 | 65 | 0.0 | 12.9 | 0.03 | 1.60 | 0.10 | 77 | 1013.5 |
| 20260506123036 | 4 | 48 | 0.0 | 11.3 | 0.08 | 1.60 | 0.10 | 77 | 1013.4 |
| 20260506121539 | 4 | 99 | 0.0 | 12.9 | 0.08 | 1.57 | 0.08 | 77 | 1013.3 |
| 20260506120014 | 4 | 74 | 0.0 | 0.0 | 0.10 | 1.57 | 0.08 | 77 | 1013.5 |
| 20260506114512 | 4 | 81 | 0.0 | 11.3 | 0.08 | 1.55 | 0.05 | 77 | 1013.5 |
| 20260506113053 | 4 | 78 | 0.0 | 12.9 | 0.10 | 1.52 | 0.03 | 77 | 1013.9 |
| 20260506111551 | 4 | 87 | 0.0 | 0.0 | 0.13 | 1.50 | 0.00 | 77 | 1014.2 |
| 20260506110032 | 4 | 88 | 0.0 | 0.0 | 0.15 | 1.45 | 1.45 | 77 | 1013.9 |
| 20260506104534 | 4 | 87 | 0.0 | 0.0 | 0.18 | 1.45 | 1.45 | 77 | 1013.6 |
| 20260506103014 | 4 | 109 | 0.0 | 0.0 | 0.15 | 1.42 | 1.42 | 77 | 1013.6 |
| 20260506101514 | 4 | 111 | 0.0 | 0.0 | 0.15 | 1.37 | 1.37 | 77 | 1013.9 |
| 20260506100055 | 4 | 111 | 0.0 | 0.0 | 0.13 | 1.35 | 1.32 | 77 | 1013.8 |
| 20260506094621 | 4 | 111 | 0.0 | 0.0 | 0.10 | 1.32 | 1.30 | 77 | 1013.6 |
| 20260506093037 | 4 | 113 | 0.0 | 0.0 | 0.10 | 1.30 | 1.27 | 77 | 1013.6 |
| 20260506091537 | 4 | 115 | 0.0 | 0.0 | 0.05 | 1.24 | 1.22 | 77 | 1013.9 |
| 20260506090024 | 4 | 94 | 0.0 | 0.0 | 0.05 | 1.22 | 1.19 | 77 | 1013.8 |
| 20260506084523 | 5 | 97 | 0.0 | 0.0 | 0.05 | 1.22 | 1.19 | 77 | 1013.9 |
| 20260506083022 | 5 | 104 | 0.0 | 0.0 | 0.05 | 1.19 | 1.17 | 77 | 1014.2 |
| 20260506081522 | 5 | 103 | 0.0 | 0.0 | 0.05 | 1.19 | 1.17 | 77 | 1014.0 |
| 20260506073020 | 5 | 104 | 0.0 | 0.0 | 0.03 | 1.14 | 1.12 | 77 | 1014.0 |
| 20260506071524 | 5 | 104 | 0.0 | 0.0 | 0.03 | 1.14 | 1.12 | 77 | 1014.0 |
| 20260506061543 | 5 | 104 | 0.0 | 0.0 | 0.10 | 1.12 | 1.09 | 76 | 1014.1 |
| 20260506044510 | 5 | 204 | 0.0 | 0.0 | 0.08 | 1.02 | 0.99 | 77 | 1014.9 |
| 20260506043007 | 5 | 204 | 0.0 | 0.0 | 0.10 | 0.99 | 0.97 | 77 | 1014.9 |
| 20260506041506 | 5 | 203 | 0.0 | 0.0 | 0.10 | 0.97 | 0.94 | 77 | 1014.8 |
| 20260506040005 | 6 | 206 | 0.0 | 0.0 | 0.13 | 0.97 | 0.94 | 77 | 1014.7 |
| 20260506034504 | 6 | 238 | 0.0 | 0.0 | 0.13 | 0.94 | 0.91 | 77 | 1014.7 |
| 20260506033045 | 6 | 244 | 0.0 | 12.9 | 0.10 | 0.89 | 0.86 | 77 | 1015.1 |
| 20260506031555 | 6 | 275 | 8.0 | 12.9 | 0.13 | 0.86 | 0.84 | 77 | 1015.2 |
| 20260506030029 | 6 | 267 | 0.0 | 1.6 | 0.18 | 0.84 | 0.81 | 77 | 1014.8 |
| 20260506024529 | 6 | 276 | 0.0 | 0.0 | 0.23 | 0.81 | 0.79 | 77 | 1014.6 |
| 20260506023027 | 6 | 233 | 0.0 | 0.0 | 0.23 | 0.76 | 0.71 | 77 | 1014.3 |
| 20260506021525 | 6 | 223 | 0.0 | 6.4 | 0.25 | 0.71 | 0.71 | 76 | 1014.3 |
| 20260506020024 | 6 | 242 | 0.0 | 0.0 | 0.20 | 0.66 | 0.64 | 76 | 1014.3 |
| 20260506014524 | 6 | 242 | 4.8 | 11.3 | 0.18 | 0.58 | 0.56 | 76 | 1014.3 |
| 20260506013022 | 6 | 237 | 8.0 | 16.1 | 0.18 | 0.53 | 0.51 | 76 | 1014.2 |
| 20260506011520 | 7 | 236 | 0.0 | 11.3 | 0.15 | 0.48 | 0.46 | 76 | 1013.9 |
| 20260506010000 | 7 | 228 | 0.0 | 9.7 | 0.18 | 0.46 | 0.43 | 76 | 1013.8 |
| 20260506004600 | 7 | 257 | 0.0 | 14.5 | 0.18 | 0.41 | 0.38 | 76 | 1013.8 |
| 20260506003045 | 7 | 271 | 3.2 | 14.5 | 0.20 | 0.36 | 0.33 | 75 | 1013.9 |
| 20260506001541 | 7 | 284 | 4.8 | 16.1 | 0.20 | 0.33 | 0.30 | 75 | 1013.5 |
| 20260506000037 | 8 | 301 | 6.4 | 16.1 | 0.15 | 0.28 | 0.25 | 73 | 1013.4 |
| 20260505234540 | 8 | 303 | 11.3 | 24.1 | 0.08 | 0.20 | 0.18 | 70 | 1013.1 |
| 20260505233031 | 10 | 315 | 20.9 | 29.0 | 0.03 | 0.15 | 0.13 | 72 | 1012.8 |